Location: ???????
(55.4362°N, 38.1183°E)
Time: 18:14:10
(UTC+00:00)

Cosmos 1536 Rocket - Pass Details

Date: 17 June 2021
Orbit: 604 x 633 km, 82.5° (Epoch: 29 July)

Event Time Altitude Azimuth Distance (km) Brightness Sun altitude
Exits shadow 19:37:55 - 186° (S) 2,369 6.0 -7.7°
Reaches altitude 10° 19:38:48 10° 185° (S) 2,013 5.7 -7.8°
Maximum altitude 19:43:16 79° 99° (E) 650 3.6 -8.0°
Drops below altitude 10° 19:47:45 10° 14° (NNE) 2,016 7.1 -8.3°
Sets 19:49:59 0° 13° (NNE) 2,924 8.0 -8.4°
